{"data":{"norad_id":65241,"epoch":"2026-09-20T20:45:36.050976Z","epoch_age_seconds":85990,"freshness":"FRESH","line1":"1 65241U 25179G   26263.86500059  .00015896  00000+0  49333-3 0  9997","line2":"2 65241  97.2816 303.1060 0001510  99.7871 260.3543 15.33467185 61366","mean_motion":15.33467185,"eccentricity":0.000151,"inclination_deg":97.2816,"raan_deg":303.106,"arg_perigee_deg":99.7871,"mean_anomaly_deg":260.3543,"bstar":0.00049333,"rev_number":6136,"period_min":93.904846095549,"perigee_km":464.44378258297,"apogee_km":466.51055406181,"semimajor_km":6843.6141683224,"source":"CELESTRAK","updated_at":"2026-09-21T09:00:35.558603Z"}}